• In Denmark
  • List of Countries
  • For 7 days
  • Water Temperature
  • Satellite Maps
  • Weather Map
  • Weather Widgets
  • user-avatar
    Login

    Hourly Weather Vanadzor

    Today, 22 September, Saturday

    Time Temperature Precipitation Wind Pressure Humidity
    00:00 +13°C° 0.3 mm 1 mps 638 mmHg 92%
    01:00 +13°C° 0.2 mm 1 mps 638 mmHg 92%
    02:00 +13°C° 0.2 mm 1 mps 638 mmHg 92%
    03:00 +13°C° 0 mm 1 mps 638 mmHg 93%
    04:00 +13°C° 0.3 mm 1 mps 638 mmHg 93%
    05:00 +13°C° 0.3 mm 1 mps 638 mmHg 94%
    06:00 +12°C° 0.3 mm 1 mps 638 mmHg 94%
    07:00 +14°C° 0.5 mm 1 mps 638 mmHg 88%
    08:00 +15°C° 0.5 mm 1 mps 638 mmHg 83%
    09:00 +16°C° 0.5 mm 1 mps 639 mmHg 77%
    10:00 +17°C° 0.3 mm 2 mps 639 mmHg 74%
    11:00 +17°C° 0.3 mm 2 mps 639 mmHg 70%
    12:00 +18°C° 0.3 mm 2 mps 639 mmHg 66%
    13:00 +18°C° 0.5 mm 2 mps 639 mmHg 66%
    14:00 +19°C° 0.5 mm 2 mps 638 mmHg 65%
    15:00 +19°C° 0.5 mm 2 mps 638 mmHg 65%
    16:00 +18°C° 0.9 mm 2 mps 638 mmHg 71%
    17:00 +16°C° 0.9 mm 2 mps 638 mmHg 77%
    18:00 +15°C° 0.9 mm 2 mps 637 mmHg 83%
    19:00 +15°C° 0.5 mm 1 mps 638 mmHg 86%
    20:00 +14°C° 0.5 mm 1 mps 638 mmHg 89%
    21:00 +14°C° 0.5 mm 1 mps 638 mmHg 92%
    22:00 +14°C° 0.1 mm 1 mps 638 mmHg 92%
    23:00 +14°C° 0.1 mm 1 mps 638 mmHg 93%

    Tomorrow, 23 September, Sunday

    Time Temperature Precipitation Wind Pressure Humidity
    00:00 +13°C° 0.1 mm 1 mps 638 mmHg 93%
    01:00 +13°C° 0.1 mm 1 mps 638 mmHg 94%
    02:00 +13°C° 0.1 mm 1 mps 638 mmHg 94%
    03:00 +13°C° 0.1 mm 1 mps 638 mmHg 94%
    04:00 +13°C° 0 mm 1 mps 638 mmHg 94%
    05:00 +12°C° 0 mm 1 mps 637 mmHg 94%
    06:00 +12°C° 0 mm 1 mps 637 mmHg 94%
    07:00 +14°C° 0 mm 1 mps 638 mmHg 85%
    08:00 +15°C° 0 mm 1 mps 638 mmHg 76%
    09:00 +18°C° 0 mm 1 mps 639 mmHg 68%
    10:00 +19°C° 0 mm 1 mps 639 mmHg 62%
    11:00 +20°C° 0 mm 1 mps 639 mmHg 56%
    12:00 +21°C° 0 mm 2 mps 639 mmHg 50%
    13:00 +21°C° 0.3 mm 2 mps 639 mmHg 49%
    14:00 +21°C° 0.3 mm 2 mps 639 mmHg 49%
    15:00 +21°C° 0.3 mm 2 mps 638 mmHg 48%
    16:00 +19°C° 0.9 mm 2 mps 638 mmHg 56%
    17:00 +18°C° 0.9 mm 2 mps 637 mmHg 65%
    18:00 +16°C° 0.9 mm 1 mps 637 mmHg 73%
    19:00 +15°C° 0.7 mm 1 mps 637 mmHg 76%
    20:00 +15°C° 0.7 mm 1 mps 638 mmHg 80%
    21:00 +14°C° 0.7 mm 1 mps 638 mmHg 83%
    22:00 +14°C° 0.2 mm 1 mps 638 mmHg 85%
    23:00 +13°C° 0.2 mm 1 mps 638 mmHg 86%

    Day after tomorrow, 24 September, Monday

    Time Temperature Precipitation Wind Pressure Humidity
    00:00 +13°C° 0.2 mm 2 mps 638 mmHg 88%
    01:00 +12°C° 0 mm 2 mps 638 mmHg 88%
    02:00 +12°C° 0 mm 2 mps 638 mmHg 89%
    03:00 +12°C° 0 mm 2 mps 638 mmHg 89%
    04:00 +10°C° 0 mm 2 mps 638 mmHg 88%
    05:00 +10°C° 0 mm 2 mps 638 mmHg 88%
    06:00 +10°C° 0 mm 2 mps 638 mmHg 87%
    07:00 +13°C° 0 mm 1 mps 638 mmHg 77%
    08:00 +15°C° 0 mm 1 mps 639 mmHg 68%
    09:00 +18°C° 0 mm 1 mps 640 mmHg 59%
    10:00 +20°C° 0 mm 1 mps 640 mmHg 54%
    11:00 +21°C° 0 mm 1 mps 640 mmHg 49%
    12:00 +22°C° 0 mm 1 mps 640 mmHg 44%
    13:00 +22°C° 0 mm 1 mps 640 mmHg 44%
    14:00 +21°C° 0 mm 2 mps 640 mmHg 43%
    15:00 +21°C° 0 mm 2 mps 640 mmHg 43%
    16:00 +21°C° 0 mm 1 mps 639 mmHg 50%
    17:00 +19°C° 0 mm 1 mps 638 mmHg 57%
    18:00 +16°C° 0 mm 1 mps 638 mmHg 64%
    19:00 +15°C° 0 mm 1 mps 638 mmHg 68%
    20:00 +15°C° 0 mm 1 mps 638 mmHg 73%
    21:00 +14°C° 0 mm 2 mps 638 mmHg 77%
    22:00 +13°C° 0 mm 1 mps 638 mmHg 79%
    23:00 +13°C° 0 mm 1 mps 638 mmHg 81%

    25 September, Tuesday

    Time Temperature Precipitation Wind Pressure Humidity
    00:00 +13°C° 0 mm 1 mps 638 mmHg 83%
    01:00 +12°C° 0 mm 1 mps 638 mmHg 84%
    02:00 +12°C° 0 mm 1 mps 637 mmHg 85%
    03:00 +12°C° 0 mm 1 mps 637 mmHg 85%
    04:00 +12°C° 0 mm 1 mps 637 mmHg 85%
    05:00 +12°C° 0 mm 1 mps 637 mmHg 84%
    06:00 +11°C° 0 mm 1 mps 637 mmHg 84%
    07:00 +14°C° 0 mm 1 mps 637 mmHg 73%
    08:00 +16°C° 0 mm 1 mps 638 mmHg 61%
    09:00 +20°C° 0 mm 1 mps 639 mmHg 50%
    10:00 +20°C° 0 mm 2 mps 639 mmHg 45%
    11:00 +21°C° 0 mm 2 mps 639 mmHg 41%
    12:00 +24°C° 0 mm 2 mps 639 mmHg 36%
    13:00 +24°C° 0 mm 2 mps 638 mmHg 36%
    14:00 +24°C° 0 mm 2 mps 638 mmHg 35%
    15:00 +24°C° 0 mm 2 mps 638 mmHg 35%
    16:00 +22°C° 0 mm 1 mps 637 mmHg 43%
    17:00 +20°C° 0 mm 1 mps 637 mmHg 51%
    18:00 +18°C° 0 mm 1 mps 636 mmHg 59%
    19:00 +16°C° 0 mm 1 mps 636 mmHg 64%
    20:00 +16°C° 0 mm 1 mps 637 mmHg 70%
    21:00 +15°C° 0 mm 2 mps 637 mmHg 75%
    22:00 +14°C° 0 mm 2 mps 637 mmHg 77%
    23:00 +14°C° 0 mm 2 mps 637 mmHg 79%

    26 September, Wednesday

    Time Temperature Precipitation Wind Pressure Humidity
    00:00 +14°C° 0 mm 1 mps 636 mmHg 81%
    01:00 +13°C° 0 mm 1 mps 636 mmHg 81%
    02:00 +13°C° 0 mm 1 mps 636 mmHg 82%
    03:00 +13°C° 0 mm 1 mps 636 mmHg 82%
    04:00 +12°C° 0 mm 1 mps 636 mmHg 82%
    05:00 +12°C° 0 mm 1 mps 636 mmHg 81%
    06:00 +12°C° 0 mm 1 mps 636 mmHg 81%
    07:00 +14°C° 0 mm 2 mps 637 mmHg 73%
    08:00 +16°C° 0 mm 2 mps 637 mmHg 65%
    09:00 +18°C° 0 mm 2 mps 638 mmHg 57%
    10:00 +18°C° 0.1 mm 2 mps 638 mmHg 55%
    11:00 +19°C° 0.1 mm 2 mps 638 mmHg 53%
    12:00 +20°C° 0.1 mm 3 mps 638 mmHg 50%
    13:00 +20°C° 0.2 mm 3 mps 638 mmHg 53%
    14:00 +19°C° 0.2 mm 3 mps 637 mmHg 55%
    15:00 +19°C° 0.2 mm 3 mps 637 mmHg 57%
    16:00 +18°C° 0.2 mm 3 mps 637 mmHg 63%
    17:00 +16°C° 0.2 mm 3 mps 637 mmHg 69%
    18:00 +14°C° 0.2 mm 3 mps 637 mmHg 74%
    19:00 +14°C° 0.1 mm 2 mps 637 mmHg 78%
    20:00 +13°C° 0.1 mm 2 mps 637 mmHg 81%
    21:00 +12°C° 0.1 mm 2 mps 637 mmHg 84%
    22:00 +12°C° 0 mm 2 mps 637 mmHg 86%
    23:00 +12°C° 0 mm 2 mps 637 mmHg 88%

    27 September, Thursday

    Time Temperature Precipitation Wind Pressure Humidity
    00:00 +10°C° 0 mm 2 mps 637 mmHg 89%
    01:00 +10°C° 0 mm 2 mps 638 mmHg 90%
    02:00 +10°C° 0 mm 2 mps 638 mmHg 91%
    03:00 +9°C° 0 mm 2 mps 638 mmHg 92%
    04:00 +10°C° 0 mm 1 mps 638 mmHg 92%
    05:00 +10°C° 0 mm 1 mps 638 mmHg 93%
    06:00 +10°C° 0 mm 1 mps 638 mmHg 93%
    07:00 +11°C° 0 mm 1 mps 639 mmHg 85%
    08:00 +13°C° 0 mm 1 mps 639 mmHg 78%
    09:00 +14°C° 0 mm 2 mps 640 mmHg 71%
    10:00 +15°C° 0 mm 2 mps 640 mmHg 68%
    11:00 +16°C° 0 mm 2 mps 640 mmHg 65%
    12:00 +17°C° 0 mm 2 mps 640 mmHg 62%
    13:00 +17°C° 0 mm 2 mps 640 mmHg 63%
    14:00 +17°C° 0 mm 2 mps 639 mmHg 65%
    15:00 +17°C° 0 mm 2 mps 639 mmHg 66%
    16:00 +15°C° 0.1 mm 2 mps 639 mmHg 73%
    17:00 +14°C° 0.1 mm 2 mps 639 mmHg 80%
    18:00 +13°C° 0.1 mm 2 mps 639 mmHg 86%
    19:00 +13°C° 0 mm 2 mps 639 mmHg 87%
    20:00 +13°C° 0 mm 2 mps 640 mmHg 88%
    21:00 +13°C° 0 mm 2 mps 640 mmHg 89%
    22:00 +12°C° 0 mm 2 mps 640 mmHg 91%
    23:00 +12°C° 0 mm 2 mps 640 mmHg 92%
    Show more